Location: Asheville, NC
(35.6000°N, 82.5500°W)
Time: 16:40:21
(UTC-05:00)

SRMSAT - Pass Details

Date: 07 January 2018
Orbit: 849 x 866 km, 20.0° (Epoch: 18 January)

Event Time Altitude Azimuth Distance (km) Brightness Sun altitude
Rises 18:48:43 0° 213° (SSW) 3,415 ? -15.1°
Reaches altitude 10° 18:54:11 10° 173° (S) 2,476 ? -16.1°
Maximum altitude 18:54:58 10° 165° (SSE) 2,458 ? -16.3°
Drops below altitude 10° 18:55:44 10° 158° (SSE) 2,475 ? -16.4°
Enters shadow 18:58:47 - 132° (SE) 2,856 ? -17.0°
